Regional Weather Roundup
Issued by NWS

Home | Current Version | Previous Version | Text Only | Print | Product List | Glossary Off
Versions: 1 2 3 4 5 6 7 8 9 10 11 12 13 14 15 16 17 18 19 20 21 22 23 24 25 26 27 28 29 30 31 32 33 34 35 36 37 38 39 40 41 42 43 44 45 46 47 48 49 50

000
ASUS43 KFSD 130010
RWRSD

WEATHER ROUNDUP FOR SOUTH DAKOTA
NATIONAL WEATHER SERVICE SIOUX FALLS SD
700 PM CDT SAT JUL 12 2014

NOTE: "FAIR" INDICATES FEW OR NO CLOUDS BELOW 12,000 FEET WITH NO
SIGNIFICANT WEATHER AND/OR OBSTRUCTIONS TO VISIBILITY.


SDZ001>005-009-010-012>017-130100-
NORTHWEST AND NORTH CENTRAL SOUTH DAKOTA

CITY           SKY/WX    TMP DP  RH WIND       PRES   REMARKS
BUFFALO          N/A     81  54  39 N15       30.08S
FAITH            N/A     82  62  50 NW3       30.11S
MOBRIDGE       SUNNY     80  64  58 NW8       30.01F
$$

SDZ012>016-024>037-041>051-057-063-072>074-130100-
SOUTHWEST AND SOUTH CENTRAL SOUTH DAKOTA

CITY           SKY/WX    TMP DP  RH WIND       PRES   REMARKS
RAPID CTY ARPT MOSUNNY   80  62  54 CALM      30.15F
PIERRE         SUNNY     80  63  55 NW9       30.05F
CUSTER         MOSUNNY   68  59  73 E7        30.29S
PHILIP         MOSUNNY   83  61  47 NW6       30.09S
PINE RIDGE     MOSUNNY   79  61  53 NW7       30.15S
WINNER         FAIR      83  63  50 N12       30.06S
$$

SDZ004>011-016>023-039-040-130100-
NORTHEAST SOUTH DAKOTA

CITY           SKY/WX    TMP DP  RH WIND       PRES   REMARKS
ABERDEEN       SUNNY     81  59  47 W14       29.99F
WATERTOWN      SUNNY     76  63  64 W14       30.02F
SISSETON         N/A     80  63  55 NW9       29.95F
$$

SDZ017-020-022-023-036>040-048>070-130100-
SOUTHEAST SOUTH DAKOTA

CITY           SKY/WX    TMP DP  RH WIND       PRES   REMARKS
SIOUX FALLS    MOSUNNY   80  64  58 NW10      30.01S
HURON          SUNNY     80  65  59 NW9       30.02S
CHAMBERLAIN    SUNNY     80  64  57 N10G16    30.05S
MITCHELL       SUNNY     81  66  60 NW12      30.03S
YANKTON        MOSUNNY   81  68  65 N5        30.02S
$$

ABBREVIATIONS USED IN REMARKS
   TC - TEMPERATURE IN CELSIUS
  WCI - WIND CHILL INDEX
   HX - HEAT INDEX
  VSB - VISIBILITY




USA.gov is the U.S. government's official web portal to all federal, state and local government web resources and services.